{"data":{"norad_id":56309,"epoch":"2026-05-24T20:06:12.609216Z","epoch_age_seconds":86116,"freshness":"FRESH","line1":"1 56309U 23057B   26144.83764594  .00009322  00000+0  36254-3 0  9991","line2":"2 56309   9.9919 237.2728 0004252 126.3921 233.6688 15.21489042170493","mean_motion":15.21489042,"eccentricity":0.0004252,"inclination_deg":9.9919,"raan_deg":237.2728,"arg_perigee_deg":126.3921,"mean_anomaly_deg":233.6688,"bstar":0.00036254,"rev_number":17049,"period_min":94.644125606525,"perigee_km":498.42327629777,"apogee_km":504.27359071042,"semimajor_km":6879.4854335041,"source":"CELESTRAK","updated_at":"2026-05-25T13:37:59.410926Z"}}